Regional Weather Roundup
Issued by NWS

Home | Current Version | Previous Version | Text Only | Print | Product List | Glossary On
Versions: 1 2 3 4 5 6 7 8 9 10 11 12 13 14 15 16 17 18 19 20 21 22 23 24 25 26 27 28 29 30 31 32 33 34 35 36 37 38 39 40 41 42 43 44 45 46 47 48 49 50
193
ASUS44 KLIX 181001
RWRLA
LOUISIANA WEATHER ROUNDUP
NATIONAL WEATHER SERVICE NEW ORLEANS LA
400 AM CST THU DEC 18 2014

NOTE: "FAIR" INDICATES FEW OR NO CLOUDS BELOW 12,000 FEET WITH NO
      SIGNIFICANT WEATHER AND/OR OBSTRUCTIONS TO VISIBILITY.
      SKY/WX - SKY CONDITION AND SIGNIFICANT WEATHER.
      TMP - AIR TEMPERATURE.    DP   - DEWPOINT TEMPERATURE.
      RH  - RELATIVE HUMIDITY.  PRES - PRESSURE.
      HX  - HEAT INDEX.         WCI  - WIND CHILL INDEX.

*  THESE STATIONS ARE NOT NWS OR FAA STATIONS AND ARE NOT UNDER
   NWS QUALITY CONTROL.

LAZ040-048-061>063-065-066-069-181100-
SOUTHEAST LOUISIANA

CITY           SKY/WX    TMP DP  RH WIND       PRES   REMARKS
N.O. AUDUBON     N/A     53  47  80 MISG        N/A
N.O. INTL ARPT MOCLDY    50  44  80 CALM      30.17S
N.O. LAKEFRONT CLOUDY    56  49  77 E7        30.18S
N.O. DOWNTOWN* FAIR      55  45  67 NE3       30.17F
SLIDELL        CLOUDY    43  40  89 N3        30.17F
BATON ROUGE    CLOUDY    47  42  83 NE3       30.16F
BOOTHVILLE     MOCLDY    55  51  86 NE3       30.16S
BELLE CHASSE   MOCLDY    46  44  93 NE3       30.16F
BOGALUSA*        N/A     43  40  89 CALM      30.20S
GALLIANO*      NOT AVBL
NEW ROADS*     NOT AVBL
GONZALES*      NOT AVBL
HAMMOND*       NOT AVBL
HOUMA*         NOT AVBL
PORT FOURCHON* SUNNY     61  55  82 E5        30.17S

$$

LAZ041-044-053-054-181100-
SOUTHWEST LOUISIANA

CITY           SKY/WX    TMP DP  RH WIND       PRES   REMARKS
LAKE CHARLES   MOCLDY    53  49  86 E7        30.09F
LAFAYETTE      PTCLDY    50  42  74 E6        30.13F
PATTERSON      MOCLDY    50  45  81 E5        30.16F
SALT POINT       N/A     54  47  77 E3        30.14F
NEW IBERIA     MOCLDY    51  45  79 E7        30.14F
CHENAULT AIRPK NOT AVBL

$$

LAZ027-028-181100-
CENTRAL LOUISIANA

CITY           SKY/WX    TMP DP  RH WIND       PRES   REMARKS
FORT POLK      NOT AVBL
ALEXANDRIA INT CLOUDY    50  43  77 NE3       30.13F
ALEXANDRIA     CLOUDY    50  43  77 E6        30.13F

$$

LAZ001-002-181100-
NORTHWEST LOUISIANA

CITY           SKY/WX    TMP DP  RH WIND       PRES   REMARKS
SHREVEPORT     CLOUDY    45  43  93 NE7       30.15F
BARKSDALE AFB  NOT AVBL
DTN SHREVEPORT LGT RAIN  44  41  89 NE5       30.17F

$$

LAZ014-016-181100-
NORTHEAST LOUISIANA

CITY           SKY/WX    TMP DP  RH WIND       PRES   REMARKS
MONROE         CLOUDY    45  41  86 E7        30.19F
TALLULAH       CLOUDY    46  39  76 NE6       30.19F

$$




USA.gov is the U.S. government's official web portal to all federal, state and local government web resources and services.